Cloud_Cover
64 56 44 32 12 0 0 0 0 0 0 0 24 36 36 36 32 32 24 20 20 8 0 0 0 0 0 0 0 0 0 0 0 0 0 8 8 8 8 0 0 0 0 0 0 0 0 0 0 0 0 0 0 0 0 0 0 0 0 0 0 0 0 0 0 0 0 0 0
48 32 20 8 0 0 0 0 0 0 12 24 36 44 48 56 32 20 8 0 0 0 0 0 0 0 0 0 0 0 0 0 0 8 8 8 12 12 12 8 8 8 8 8 8 8 8 8 0 0 0 0 0 0 0 0 0 0 0 0 0 0 0 0 0 0 0 0 0
24 12 8 8 0 0 0 0 0 8 12 24 48 56 44 32 8 0 0 0 0 0 0 0 0 0 0 0 0 0 0 0 12 12 8 12 20 12 12 8 12 12 20 12 12 12 12 12 0 0 0 0 0 0 0 0 0 0 0 0 0 0 0 0 0 0 0 0 0
8 0 0 0 0 0 0 0 0 0 0 0 12 12 8 0 0 0 0 0 0 0 0 0 0 8 12 8 0 0 0 0 12 12 12 24 20 12 12 20 20 20 20 12 8 8 8 8 0 0 0 0 0 0 0 0 0 0 0 0 0 0 0 0 0 0 0 0 0
8 0 0 0 0 0 0 0 0 0 0 0 0 0 0 0 0 0 0 0 0 8 20 24 20 12 0 0 0 0 0 0 12 24 32 32 24 20 24 20 20 12 8 8 12 12 8 0 0 0 0 0 0 0 0 0 0 0 0 0 0 0 0 0 0 0 0 0 8
0 0 0 0 0 0 0 0 0 0 0 0 0 0 0 0 0 0 0 0 0 8 20 0 0 0 0 0 0 0 0 0 12 24 32 24 24 24 24 24 20 20 12 12 12 8 0 0 0 0 0 0 0 0 0 0 0 0 0 0 0 0 0 0 0 0 0 0 0
0 0 0 0 0 0 0 0 0 0 0 0 0 0 0 0 0 0 0 0 0 0 0 0 0 0 0 0 0 0 0 0 24 32 24 20 24 24 20 20 20 12 12 12 8 0 0 0 0 0 0 0 0 0 0 0 0 0 0 0 0 0 0 0 0 0 0 0 0
0 0 0 0 0 0 0 0 0 0 0 0 0 0 0 0 0 0 0 0 0 0 0 0 0 8 8 8 8 8 8 12 24 24 20 20 24 24 20 20 12 8 0 8 0 0 0 0 0 0 0 0 0 0 0 0 0 0 0 0 0 0 0 0 0 0 0 0 20
0 0 0 0 0 0 0 8 12 12 12 12 0 0 0 0 0 0 0 0 0 0 8 12 20 24 32 36 24 12 12 36 32 24 20 20 20 20 20 12 8 0 0 0 0 0 0 0 0 0 0 0 0 0 0 0 0 0 0 0 0 0 0 0 0 0 0 0 36
0 0 0 0 8 20 24 24 24 20 20 12 0 0 0 0 0 0 0 0 0 0 8 12 32 36 44 44 32 20 20 44 36 24 20 20 20 20 12 8 0 0 0 0 0 0 0 0 0 0 0 0 0 0 0 0 0 0 0 0 0 0 0 0 0 0 0 0 36
0 0 8 32 36 44 44 44 36 20 0 0 0 0 0 0 0 0 0 12 12 12 8 0 20 32 36 36 24 24 32 56 36 24 20 20 12 12 8 8 0 0 0 0 0 0 0 0 0 0 0 0 0 0 0 0 0 0 0 0 0 0 0 0 0 0 0 0 32
0 0 12 32 48 56 48 44 32 12 0 0 0 0 0 0 0 8 24 32 24 20 8 0 20 32 32 32 36 32 36 56 24 12 12 12 12 8 8 0 0 0 0 0 0 0 0 0 0 0 0 0 0 0 0 0 0 0 0 0 0 0 0 0 0 0 0 0 12
0 12 24 36 48 48 44 36 24 12 0 0 0 0 0 0 0 20 24 20 8 8 8 20 20 36 44 44 44 36 32 44 20 8 8 8 8 8 0 0 0 0 0 0 0 0 0 0 0 0 0 0 0 0 0 0 0 0 0 0 0 0 0 0 0 0 0 0 8
8 20 32 44 48 48 48 36 20 20 12 8 0 0 0 8 20 20 12 0 0 0 8 24 32 44 56 48 44 32 24 32 20 8 8 8 8 8 0 0 0 0 0 0 0 0 0 0 0 0 0 0 0 0 0 0 0 0 0 0 0 0 0 0 0 0 0 0 8
24 36 48 56 64 64 48 32 24 24 24 20 8 12 20 32 44 24 8 8 8 8 12 24 44 56 56 48 36 32 24 24 12 8 0 8 8 8 0 0 0 0 0 0 0 0 0 0 0 0 0 0 0 0 0 0 0 0 0 0 0 0 0 0 0 0 0 8 12
44 56 76 88 92 76 56 44 32 36 44 36 32 32 44 48 44 32 24 24 24 24 24 32 48 56 64 48 36 24 24 24 12 8 8 8 8 8 0 0 8 0 0 0 0 0 0 0 0 0 0 0 0 0 0 0 0 0 0 0 0 0 0 0 0 8 12 20 20
64 80 92 92 92 88 76 56 36 48 68 76 64 56 48 48 44 44 44 36 36 36 44 56 56 64 64 44 36 32 24 24 12 12 12 8 8 8 8 12 12 8 0 0 0 0 0 0 0 0 0 0 0 0 0 0 0 0 0 0 0 0 0 0 0 12 24 20 20
88 92 92 92 92 88 68 44 24 36 68 80 68 56 56 56 64 64 56 44 48 64 80 80 80 76 64 36 36 32 24 20 20 20 20 12 12 12 20 20 20 12 8 0 0 0 0 0 0 0 0 0 0 0 0 0 0 0 0 0 0 0 0 0 12 20 20 12 12
88 92 92 92 76 56 32 12 0 12 36 48 68 76 76 76 76 64 56 44 48 68 92 92 92 80 64 32 32 24 24 24 24 24 24 20 24 24 32 24 20 12 8 0 0 0 0 0 0 0 0 0 0 0 0 0 0 0 0 0 0 0 0 0 8 12 8 0 0
92 92 92 76 48 32 12 0 0 0 20 56 80 92 92 80 76 64 48 36 48 68 88 92 92 80 56 32 24 24 24 32 32 36 36 36 36 36 36 32 24 20 12 8 0 0 0 0 0 0 0 0 0 0 0 0 0 0 0 0 0 0 0 0 0 0 0 0 0
92 92 88 64 48 36 24 8 0 12 36 80 92 92 92 76 64 56 48 36 48 76 92 92 92 80 56 36 32 32 36 36 36 44 44 44 44 44 36 32 24 20 12 8 0 0 0 0 0 0 0 0 0 0 0 0 0 0 0 0 0 0 0 0 0 0 0 0 0
92 88 68 48 44 44 36 24 20 48 80 92 92 88 76 64 56 56 56 48 56 80 92 92 92 80 56 44 44 44 44 44 44 48 48 48 56 48 36 24 24 20 12 8 0 0 0 0 0 0 0 0 0 0 0 0 0 0 0 0 0 0 0 0 0 0 0 0 0
48 56 48 36 44 48 48 48 68 88 92 92 68 64 56 64 64 68 64 56 64 80 92 92 88 76 56 48 48 48 48 48 48 48 56 56 56 56 44 24 20 12 8 8 0 0 0 0 0 0 0 0 0 0 0 0 0 0 8 24 8 0 0 0 0 0 0 0 0
8 8 20 44 56 68 80 88 92 76 56 36 24 24 36 64 68 68 68 64 68 88 92 92 88 76 64 56 56 56 48 48 56 64 64 64 64 56 44 24 20 12 8 0 0 0 0 0 0 0 0 0 0 0 0 0 0 0 8 36 8 0 0 0 0 0 0 0 0
0 0 0 8 48 80 92 92 56 36 24 12 12 20 36 64 68 68 68 76 88 92 92 92 88 76 68 64 64 56 56 64 64 68 76 68 64 56 44 24 12 8 0 0 0 0 0 0 0 0 0 0 0 0 0 0 0 8 8 8 0 0 0 0 0 0 0 0 0
0 0 0 0 48 80 92 92 36 12 12 12 8 24 48 68 68 76 88 92 92 92 92 92 88 76 68 64 64 64 64 64 68 76 76 76 64 56 36 24 12 0 0 0 0 0 0 0 0 0 0 0 0 0 0 0 0 0 0 0 0 0 0 0 0 0 0 0 0
12 12 20 24 76 92 88 48 24 12 8 8 44 64 76 76 88 92 92 92 92 92 92 92 88 76 68 68 64 64 68 76 80 80 76 68 64 48 36 24 12 8 0 0 0 0 0 0 0 0 0 0 0 0 0 0 0 0 0 0 0 0 0 0 0 0 0 0 0
56 64 68 92 92 88 68 56 24 24 36 56 80 88 92 88 92 92 92 92 92 92 92 80 76 68 68 76 68 68 76 80 80 80 76 68 56 44 32 20 8 0 0 0 0 0 0 0 0 0 0 0 0 0 0 0 0 0 0 0 0 0 0 0 0 0 0 0 0
88 92 92 92 92 88 76 56 32 44 64 80 92 92 92 92 92 92 92 92 92 92 92 80 76 76 76 80 76 76 80 88 88 80 76 64 48 36 24 12 8 0 0 0 0 0 0 0 0 0 0 0 0 0 0 0 0 0 0 0 0 0 0 0 0 0 0 0 0
88 92 92 92 80 64 44 24 48 68 76 88 92 92 92 92 92 92 92 92 92 88 76 76 80 88 88 80 80 80 88 88 92 88 68 56 44 32 20 8 0 0 0 0 0 0 0 0 0 0 0 0 0 0 0 0 0 0 0 0 0 0 0 0 0 0 0 0 0
68 64 48 36 32 24 24 24 68 88 88 88 92 92 92 92 92 92 92 92 88 80 80 80 88 88 80 76 76 88 88 88 92 80 64 48 36 24 12 8 0 0 0 0 0 0 0 0 0 0 0 0 0 0 0 0 0 0 0 0 0 0 0 0 0 0 0 0 0
32 32 20 8 8 36 76 92 92 92 92 92 88 92 92 92 92 92 92 80 88 88 88 88 92 80 76 76 80 88 92 92 92 76 48 36 24 20 12 8 0 0 0 0 0 0 0 0 0 0 0 0 0 0 0 0 0 0 0 0 0 0 0 0 0 0 0 0 0
8 0 0 0 36 64 80 88 92 92 92 92 92 92 92 92 92 92 88 80 80 88 88 88 88 88 80 88 92 92 92 92 80 64 36 24 20 12 8 0 0 0 0 0 0 0 0 0 0 0 0 0 0 0 0 0 0 0 0 0 0 0 0 0 0 0 0 0 0
0 0 0 0 0 0 8 44 80 92 92 92 92 92 92 92 88 88 92 88 88 88 88 88 80 80 88 92 92 92 88 76 64 48 36 20 12 8 0 0 0 0 0 0 0 0 0 0 0 0 0 0 0 0 0 0 0 0 0 0 0 0 0 0 0 0 0 0 0
0 0 0 0 0 0 8 44 68 80 80 88 92 92 88 80 88 88 88 88 88 88 88 80 88 92 92 92 92 80 68 56 44 36 32 24 8 0 0 0 0 0 0 0 0 0 0 0 0 0 0 0 0 0 0 0 0 0 0 0 0 0 0 0 0 0 0 0 0
0 0 0 0 0 0 0 20 64 80 80 80 80 80 80 80 80 80 80 88 92 92 88 88 92 92 92 88 76 64 48 36 32 24 24 20 8 0 0 0 0 0 0 0 0 0 0 0 0 0 0 0 0 0 0 0 0 0 0 0 0 0 0 0 0 0 0 0 0
0 0 0 0 0 0 8 44 68 76 76 68 68 76 80 80 80 80 88 92 92 92 92 92 92 88 80 68 56 48 36 32 24 24 20 8 0 0 0 0 0 0 0 0 0 0 0 0 0 0 0 0 0 0 0 0 0 0 0 0 0 0 0 0 0 0 0 0 0
0 0 0 0 0 0 0 0 32 48 64 64 76 76 76 80 88 88 92 92 92 92 92 88 80 68 56 48 44 36 32 24 20 12 8 0 0 0 0 0 0 0 0 0 0 0 0 0 0 0 0 0 0 0 0 0 0 0 0 0 0 0 0 0 0 0 0 0 0
0 0 0 0 0 0 0 0 0 24 56 80 80 76 76 76 88 88 92 92 92 92 88 76 56 44 36 36 36 32 24 20 12 0 0 0 0 0 0 0 0 0 0 0 0 0 0 0 0 0 0 0 0 0 0 0 0 0 0 0 0 0 0 0 0 0 0 0 0
0 0 0 0 0 0 0 0 0 12 44 68 76 76 68 68 76 88 92 88 92 88 76 56 48 44 36 36 36 32 20 8 0 0 0 0 0 0 0 0 0 0 0 0 0 0 0 0 0 0 0 0 0 0 0 0 0 0 0 0 0 0 0 0 0 0 0 0 0
0 0 0 0 0 0 0 0 0 0 20 56 68 68 68 76 80 88 88 88 76 64 56 56 48 48 44 36 24 20 8 0 0 0 0 0 0 0 0 0 0 0 0 0 0 0 0 0 0 0 0 0 0 0 0 0 0 0 0 0 0 0 0 0 0 0 0 0 0